Location: Warwick
(41.7000°N, 71.4170°W)
Time: 16:34:30
(UTC-04:00)

BREEZE-M DEB (TANK) - Visible Passes

Search period start: 26 July 2017 00:00
Search period end: 05 August 2017 00:00
Orbit: 318 x 15830 km, 49.5° (Epoch: 25 July)

Date Brightness Start Highest point End Pass type
(mag) Time Alt. Az. Time Alt. Az. Time Alt. Az.
26 Jul 6.2 00:14:27 10° W 01:27:39 72° N 01:37:09 10° E visible
27 Jul 6.1 00:18:23 10° W 01:28:56 73° NNE 01:38:14 10° E visible
28 Jul 6.0 00:22:11 10° W 01:30:11 74° NNE 01:39:16 10° E visible
28 Jul 7.6 17:36:27 10° SSW 20:01:32 78° SE 20:38:51 10° ENE visible
29 Jul 6.0 00:25:52 10° W 01:31:26 75° NNE 01:40:18 10° ESE visible
29 Jul 7.6 17:37:02 10° SSW 20:02:58 80° SE 20:39:57 10° ENE visible
30 Jul 5.9 00:29:24 10° WNW 01:32:38 77° NNE 01:41:20 10° ESE visible
30 Jul 7.6 17:37:39 10° SSW 20:04:25 81° SE 20:41:01 10° ENE visible
31 Jul 5.8 00:32:47 10° WNW 01:33:49 78° NNE 01:42:19 10° ESE visible
31 Jul 7.6 17:38:19 10° SSW 20:05:53 83° SE 20:42:04 10° ENE visible
01 Aug 5.7 00:36:02 10° WNW 01:34:59 80° NNE 01:43:19 10° ESE visible
01 Aug 7.5 17:39:01 10° SSW 20:07:21 84° SE 20:43:06 10° ENE visible
02 Aug 5.7 00:39:09 10° WNW 01:36:06 82° NNE 01:44:16 10° ESE visible
02 Aug 7.5 17:39:46 10° SSW 20:08:50 86° SE 20:44:08 10° ENE visible
03 Aug 5.6 00:42:08 10° WNW 01:37:12 84° NNE 01:45:12 10° ESE visible
03 Aug 7.5 17:40:33 10° SSW 20:10:19 87° SE 20:45:09 10° ENE visible
04 Aug 5.5 00:44:59 10° WNW 01:38:16 86° NNE 01:46:08 10° ESE visible
04 Aug 7.5 17:41:23 10° SSW 20:11:48 89° SE 20:46:09 10° ENE visible
